This is the latest recevied weather packets stored in our database for station/object KD8TSA. If no packets are shown the sender has not sent any weather packets the latest 10 day(s).
| Time | Temp. | Humidity | Pressure | Rain* | Wind** | Luminosity | Snow |
|---|---|---|---|---|---|---|---|
| 1777506230 | 15° C | 74% | 1010.1 hPa | 0 mm | - | 34 W/m² | - |
| 1777505922 | 15° C | 75% | 1010.2 hPa | 0 mm | - | 44 W/m² | - |
| 1777505617 | 15.56° C | 75% | 1009.9 hPa | 0 mm | - | 42 W/m² | - |
| 1777505315 | 15.56° C | 74% | 1010 hPa | 0 mm | - | 41 W/m² | - |
| 1777505012 | 15.56° C | 75% | 1009.9 hPa | 0 mm | - | 82 W/m² | - |
| 1777504708 | 15.56° C | 75% | 1009.9 hPa | 0 mm | - | 80 W/m² | - |
| 1777504405 | 15.56° C | 76% | 1009.8 hPa | 0 mm | - | 48 W/m² | - |
| 1777504100 | 16.11° C | 76% | 1009.8 hPa | 0 mm | - | 95 W/m² | - |
| 1777503791 | 16.11° C | 76% | 1010 hPa | 0 mm | - | 117 W/m² | - |
| 1777503487 | 16.11° C | 75% | 1009.9 hPa | 0 mm | - | 178 W/m² | - |
| 1777503183 | 16.67° C | 76% | 1009.7 hPa | 0 mm | - | 173 W/m² | - |
| 1777502881 | 16.67° C | 77% | 1009.7 hPa | 0 mm | - | 130 W/m² | - |
| 1777502578 | 16.67° C | 78% | 1009.5 hPa | 0 mm | - | 107 W/m² | - |
| 1777502275 | 16.67° C | 79% | 1009.3 hPa | 0 mm | - | 128 W/m² | - |
| 1777501972 | 16.67° C | 80% | 1009.6 hPa | 0 mm | - | 94 W/m² | - |
| 1777501669 | 16.11° C | 80% | 1009.6 hPa | 0 mm | - | 229 W/m² | - |
| 1777501366 | 16.11° C | 80% | 1009.3 hPa | 0 mm | - | 58 W/m² | - |
| 1777501064 | 16.67° C | 79% | 1009.3 hPa | 0 mm | - | 51 W/m² | - |
| 1777500761 | 17.22° C | 79% | 1009.2 hPa | 0 mm | - | 92 W/m² | - |
| 1777500458 | 17.22° C | 78% | 1009.2 hPa | 0 mm | - | 113 W/m² | - |
| 1777500154 | 16.67° C | 79% | 1009.3 hPa | 0 mm | - | 402 W/m² | - |
| 1777499851 | 16.67° C | 79% | 1009.1 hPa | 0 mm | - | 277 W/m² | - |
| 1777499547 | 16.67° C | 78% | 1009.1 hPa | 0 mm | - | 122 W/m² | - |
| 1777499246 | 17.22° C | 78% | 1008.9 hPa | 0 mm | - | 151 W/m² | - |
| 1777498943 | 17.22° C | 79% | 1009.1 hPa | 0 mm | - | 147 W/m² | - |
* Rain latest hour (hover to see other rain measurements)
** Current wind speed in m/s (hover to see current wind gust speed)